Regional Weather Roundup
Issued by NWS

Home | Current Version | Previous Version | Graphics & Text | Print | Product List | Glossary On
Versions: 1 2 3 4 5 6 7 8 9 10 11 12 13 14 15 16 17 18 19 20 21 22 23 24 25 26 27 28 29 30 31 32 33 34 35 36 37 38 39 40 41 42 43 44 45 46 47 48 49 50
000
ASUS43 KBIS 191559
RWRND

NORTH DAKOTA REGIONAL WEATHER ROUNDUP
NATIONAL WEATHER SERVICE BISMARCK ND
1000 AM CST FRI DEC 19 2014

NOTE: "FAIR" INDICATES FEW OR NO CLOUDS BELOW 12,000 FEET WITH NO
SIGNIFICANT WEATHER AND/OR OBSTRUCTIONS TO VISIBILITY.


NDZ001>003-009>011-017-191700-
NORTHWEST NORTH DAKOTA

CITY           SKY/WX    TMP DP  RH WIND       PRES   REMARKS
WILLISTON      CLOUDY    21  18  88 CALM      29.94S FOG
MINOT          CLOUDY    28  26  92 W3        29.93S FOG
MINOT AFB      FRZ DRZL  27  27 100 VRB1      29.93S FOG
$$

NDZ018>021-031>035-040>046-191700-
SOUTHWEST NORTH DAKOTA

CITY           SKY/WX    TMP DP  RH WIND       PRES   REMARKS
BISMARCK       PTSUNNY   23  21  92 SE3       29.96S
GARRISON         N/A     21  19  92 CALM      29.93S
HETTINGER ARPT PTSUNNY   29  24  82 NW7       29.95R
$$

NDZ004>008-012>016-024-026-027-054-191700-
NORTHEAST NORTH DAKOTA

CITY           SKY/WX    TMP DP  RH WIND       PRES   REMARKS
GRAND FORKS    FRZ DRZL  25  24  96 S12       30.07S VSB 3/4 WCI  14
DEVILS LAKE    CLOUDY    27  19  74 S6        29.96S WCI  20
$$

NDZ022-023-025-028>030-036>039-047>053-191700-
SOUTHEAST NORTH DAKOTA

CITY           SKY/WX    TMP DP  RH WIND       PRES   REMARKS
FARGO          CLOUDY    27  24  89 S13       30.08S FOG     WCI  16
JAMESTOWN      CLOUDY    26  24  92 S13       29.98S FOG     WCI  15
$$



USA.gov is the U.S. government's official web portal to all federal, state and local government web resources and services.